Location: Mansfield Dam
(30.3944°N, 97.9097°W)
Time: 03:55:53
(UTC-05:00)

Daily predictions for brighter satellites

Satellite Brightness Start Highest point End
(mag) Time Altitude Azimuth Time Altitude Azimuth Time Altitude Azimuth
CZ-2D R/B 4.1 03:26:37 10° NNE 03:28:39 24° NNE 03:28:39 24° NNE
SL-16 R/B 3.7 03:36:53 37° N 03:36:53 37° N 03:40:31 10° N
Cosmos 1980 Rocket 3.7 03:36:02 10° N 03:39:51 32° NE 03:39:51 32° NE
Cosmos 2082 Rocket 4.2 03:48:31 20° NNW 03:48:31 20° NNW 03:50:27 10° N
ADEOS II 3.9 03:48:19 10° NE 03:52:21 24° E 03:52:21 24° E
ATLAS 3B R/B 3.0 04:03:31 64° ESE 04:03:31 64° ESE 04:10:25 10° NE
Resurs 1-4 Rocket 3.9 04:02:35 10° N 04:04:38 23° NNW 04:04:38 23° NNW
NOSS 3-2 (A) 4.2 04:10:13 42° ESE 04:10:13 42° ESE 04:15:45 10° NE
Cosmos 1763 Rocket 4.4 04:14:42 46° NNE 04:14:42 46° NNE 04:18:24 10° NNE
Cosmos 2279 Rocket 4.3 04:21:32 54° NNW 04:21:32 54° NNW 04:26:30 10° N
H-II Stage 2 3.4 04:30:23 42° SE 04:30:23 42° SE 04:39:46 10° E
Meteosat 1 Rocket2 3.9 04:31:32 72° SSE 04:31:32 72° SSE 04:39:38 10° E
USA 215 3.1 04:25:33 10° NE 04:32:06 82° SE 04:32:57 69° SSW
Cosmos 1898 Rocket 4.1 04:28:53 10° NNW 04:32:39 49° NNW 04:32:39 49° NNW
SEDSat Delta rocket 3.8 04:33:53 74° WNW 04:34:27 81° N 04:41:16 10° E
Cosmos 1937 Rocket 3.5 04:39:09 10° NNW 04:44:20 76° ENE 04:45:29 53° SE
Cosmos 858 Rocket 4.3 04:43:49 10° NNW 04:48:48 80° WNW 04:48:48 80° WNW
Centaur D-1A AC-35 3.5 04:47:53 52° SW 04:49:16 64° S 05:13:26 10° E
Timation 2 Rocket 4.2 04:52:40 46° WNW 04:52:45 46° WNW 04:58:29 10° N
ERBS 3.9 04:55:23 33° E 04:55:23 33° E 04:57:43 10° NE
ARIANE 5 R/B 4.2 04:51:30 10° NNW 04:54:03 20° NW 04:54:03 20° NW
Cosmos 990 Rocket 3.8 04:54:16 10° NNW 04:59:25 76° WSW 05:00:29 55° S
Okean O Rocket 4.1 04:56:43 10° NE 04:59:43 18° E 05:02:41 10° SE
Cosmos 1758 3.7 04:59:24 10° N 05:03:20 60° E 05:04:40 37° SSE
USA 238 DEB 4.3 05:05:08 35° W 05:06:37 40° NW 05:13:04 10° NNE
USA 238 4.3 05:05:13 36° W 05:06:43 40° NW 05:13:11 10° NNE
DNEPR-1 R/B 3.9 05:11:12 46° NW 05:11:12 46° NW 05:15:15 10° NNE
Cosmos 2266 Rocket 3.8 05:05:07 10° N 05:11:13 80° W 05:17:23 10° S
Cosmos 1733 3.6 05:08:41 10° N 05:12:31 63° E 05:14:52 22° SSE
Delta 2 Rocket 4.0 05:11:37 48° WSW 05:13:18 88° SSE 05:18:53 10° ENE
Cosmos 2150 Rocket 3.9 05:07:57 10° NNW 05:13:25 79° WSW 05:18:50 10° S
Cosmos 2298 Rocket 4.0 05:15:23 10° NNW 05:20:35 57° WSW 05:25:45 10° S
PSLV R/B 3.3 05:18:21 10° N 05:22:34 84° WNW 05:24:10 37° SSW
Cosmos 2360 Rocket 4.0 05:17:38 10° N 05:22:40 33° ENE 05:27:41 10° SE
Cosmos 1980 Rocket 4.1 05:20:35 10° NW 05:21:31 14° WNW 05:21:31 14° WNW
Cosmos 1602 Rocket 4.0 05:30:58 37° W 05:31:26 38° W 05:35:28 10° NNW
ADEOS II 2.9 05:27:32 10° N 05:32:07 31° WNW 05:33:18 28° W
Hubble Space Telescope 3.1 05:34:15 11° S 05:34:15 11° S 05:34:28 10° S
Cosmos 1812 Rocket 3.6 05:28:15 10° N 05:32:43 85° E 05:37:09 10° S
BREEZE-M DEB (TANK) 3.6 05:24:12 10° NW 05:32:45 52° NNE 05:35:41 10° ESE
CZ-4B R/B 2.7 05:29:39 10° N 05:33:47 87° W 05:36:11 23° SSW
Cosmos 1758 Rocket 4.2 05:33:33 10° S 05:37:45 56° E 05:42:00 10° NNE
OAO 3 Rocket 3.7 05:37:15 32° WSW 05:38:15 35° SSW 05:42:34 10° SE
SL-16 R/B 2.1 05:32:45 10° NNW 05:38:21 63° WSW 05:43:56 10° S
Cosmos 1470 2.6 05:34:38 10° N 05:38:37 75° W 05:42:32 10° S
Cosmos 1238 Rocket 4.1 05:32:59 10° S 05:39:15 89° E 05:46:00 10° N
USA 161 4.2 05:36:54 10° SE 05:39:24 24° ENE 05:41:53 10° NNE
NOSS 3-2 (C) 3.7 05:40:42 25° WSW 05:43:48 47° NW 05:49:52 10° NNE
Cosmos 540 Rocket 4.3 05:42:44 25° WSW 05:44:25 31° WNW 05:48:57 10° N
ATLAS 5 CENTAUR R/B 3.4 05:38:30 20° WSW 05:46:23 37° S 05:51:11 10° ESE
Cosmos 1378 4.2 05:49:19 25° W 05:49:48 26° W 05:52:59 10° NNW
Cosmos 1707 3.2 05:48:19 26° SW 05:49:54 38° W 05:53:33 10° NNW
Cosmos 2322 Rocket 2.4 05:48:23 10° NNW 05:53:44 47° WSW 05:59:04 10° S
ATLAS 3B R/B 4.1 05:50:47 15° W 05:54:32 23° NW 05:59:54 10° N
SJ 16-02 1.2 05:51:58 10° NNW 05:56:22 74° WSW 06:00:45 10° S
ATLAS CENTAUR R/B 3.4 05:57:25 10° N 06:01:36 36° ENE 06:06:00 10° SE
CZ-2C R/B 4.4 06:04:56 10° NE 06:08:52 27° E 06:12:45 10° SSE
PAYLOAD B 4.3 06:05:00 10° N 06:10:33 65° WNW 06:16:04 10° SSW
Meteor 1-31 Rocket 2.8 06:07:53 10° N 06:11:42 61° WNW 06:15:27 10° SSW
Cosmos 1400 Rocket 2.7 06:09:09 10° S 06:13:02 84° W 06:16:59 10° N
Cosmos 1953 3.7 06:10:16 10° NW 06:13:17 20° W 06:16:17 10° SW
In-Cosmos 22 4.1 06:08:20 10° S 06:13:52 86° W 06:19:18 10° N
CENTAUR R/B 2.4 06:08:56 10° SW 06:14:36 68° WNW 06:21:04 10° NNE
BREEZE M DEB (TANK) 4.0 06:06:08 10° SSW 06:15:58 45° SE 06:19:12 10° ENE
Cosmos 1674 4.0 06:14:10 10° SSE 06:17:46 43° E 06:21:23 10° NNE
CZ-4B R/B 3.2 06:12:50 10° N 06:18:19 67° WNW 06:23:40 10° SSW
Cosmos 44 4.5 06:14:53 10° NW 06:19:12 25° WSW 06:23:33 10° SSW
Cosmos 1553 Rocket 4.2 06:14:57 10° SSW 06:21:10 54° W 06:27:26 10° N
SEDSat Delta rocket 4.1 06:14:41 10° W 06:21:19 78° SSW 06:28:07 10° ESE
Meteor 1-28 Rocket 3.2 06:18:19 10° S 06:21:59 61° W 06:25:42 10° NNW
Aureole 2 Rocket 3.0 06:20:59 10° NW 06:24:23 36° WSW 06:27:32 10° S
Centaur D-1AR AC-36 4.1 06:21:43 10° SW 06:25:38 19° S 06:35:15 10° SE
IDEFIX/ARIANE 42P 2.7 06:23:14 10° NNE 06:28:29 81° ESE 06:33:43 10° S
IRS-1C Rocket 4.1 06:23:24 10° N 06:28:39 73° WNW 06:33:53 10° SSW
Cosmos 1125 Rocket 3.9 06:23:55 10° NNW 06:28:54 43° W 06:33:51 10° S
Cosmos 773 Rocket 4.1 06:24:02 10° SSW 06:29:13 87° ESE 06:34:24 10° NNE
Cosmos 2292 Rocket 2.9 06:30:11 10° NNW 06:33:21 47° W 06:36:12 10° SSW
Cosmos 2237 4.2 06:29:39 10° NNW 06:35:22 77° WSW 06:41:04 10° SSE
Cosmos-2242 3.0 06:31:10 10° N 06:35:26 84° W 06:39:41 10° S
Okean O Rocket 2.6 06:32:20 10° NNW 06:36:01 28° WNW 06:39:42 10° SW
Cosmos 2322 3.7 06:30:40 10° NNW 06:36:22 72° WSW 06:42:03 10° S
